Tracking 31027 objects as of 19-Jul-2025
HD Live streaming from Space Station
objects crossing your sky now

STARLINK-11346

Track STARLINK-11346 now!
10-day predictions
STARLINK-11346 is classified as:


NORAD ID: 61697
Int'l Code: 2024-195L
Perigee: 366.3 km
Apogee: 367.4 km
Inclination: 53.2 °
Period: 91.7 minutes
Semi major axis: 6737 km
RCS: Unknown
Launch date: October 30, 2024
Source: United States (US)
Launch site: AIR FORCE WESTERN TEST RANGE (AFWTR)
Your satellite tracking list
FLOCK 4Q 34
Track 1 satellite(s)




NASA's NSSDC Master Catalog

Two Line Element Set (TLE):
1 61697U 24195L   25199.75010451 -.00000403  00000-0  15278-5 0  9995
2 61697  53.1607  99.2843 0000864  88.8243 271.2873 15.69711011 42298
Source of the keplerian elements: AFSPC